sat.trackr.live / text

‹ back to catalog

STARLINK-36385

NORAD 67717 · 2026-025AA

PAYLOAD ACTIVE UNKNOWN

§ Identity

Operator
Country
US
Launch date
2026-02-07
Launch site
AFWTR
Launch vehicle
Mass (kg)
RCS (m²)

Purposes: comms

External: N2YO · Heavens-Above · Gunter

§ Orbital elements

Epoch: 2026-05-25T00:44:34.319328Z

Period
93.91 min
Inclination
97.2849°
Eccentricity
0.0000856
Mean motion
15.33450807 rev/d
Perigee alt
464.9 km
Apogee alt
466.1 km
Semi-major
6,843.7 km
B*
3.2384e-4
RAAN
256.6743°
Arg perigee
86.1167°
Mean anomaly
274.0173°
Rev number
1,771

§ Raw data

STARLINK-363851 67717U 26025AA  26145.03095277  .00010396  00000+0  32384-3 0  99952 67717  97.2849 256.6743 0000856  86.1167 274.0173 15.33450807 17716

JSON: /api/v1/satellites/67717 · /tle

For live sub-satellite position, see the globe view (requires WebGL).

§ Visibility from observer

Set your observer location to see the next 7 days of passes ≥ 10°. The values pass through the URL so the page stays shareable.

No JS? Fill the form by hand. The geolocation button needs JavaScript.